• In Deutschland
  • Länderverzeichnis
  • Für 7 Tage
  • Wassertemperatur
  • Satellitenkarten
  • Wetterkarte
  • Widgets
  • user-avatar
    Anmelden

    Stündliche Wetter Sydney

    Heute, 26 April, Donnerstag

    Zeit Temperatur Niederschläge Wind Luftdruck Luftfeuchtigkeit
    00:00 +19°C° 0 mm 1 m/S 759 mmHg 94%
    01:00 +17°C° 0 mm 2 m/S 759 mmHg 94%
    02:00 +17°C° 0 mm 2 m/S 759 mmHg 93%
    03:00 +17°C° 0 mm 2 m/S 759 mmHg 92%
    04:00 +17°C° 0 mm 2 m/S 759 mmHg 90%
    05:00 +17°C° 0 mm 2 m/S 759 mmHg 86%
    06:00 +17°C° 0 mm 3 m/S 760 mmHg 81%
    07:00 +17°C° 0 mm 3 m/S 760 mmHg 77%
    08:00 +19°C° 0 mm 4 m/S 760 mmHg 65%
    09:00 +22°C° 0 mm 5 m/S 760 mmHg 53%
    10:00 +26°C° 0 mm 6 m/S 760 mmHg 41%
    11:00 +27°C° 0 mm 6 m/S 760 mmHg 40%
    12:00 +27°C° 0 mm 6 m/S 760 mmHg 40%
    13:00 +28°C° 0 mm 6 m/S 760 mmHg 39%
    14:00 +27°C° 0 mm 7 m/S 760 mmHg 47%
    15:00 +24°C° 0 mm 7 m/S 760 mmHg 54%
    16:00 +23°C° 0 mm 7 m/S 760 mmHg 61%
    17:00 +22°C° 0 mm 7 m/S 761 mmHg 66%
    18:00 +20°C° 0 mm 7 m/S 762 mmHg 70%
    19:00 +19°C° 0 mm 6 m/S 762 mmHg 75%
    20:00 +19°C° 0 mm 6 m/S 763 mmHg 75%
    21:00 +19°C° 0 mm 6 m/S 764 mmHg 76%
    22:00 +17°C° 0 mm 6 m/S 764 mmHg 76%
    23:00 +17°C° 0,2 mm 6 m/S 764 mmHg 78%

    Morgen, 27 April, Freitag

    Zeit Temperatur Niederschläge Wind Luftdruck Luftfeuchtigkeit
    00:00 +17°C° 0,2 mm 6 m/S 764 mmHg 80%
    01:00 +17°C° 0,2 mm 6 m/S 764 mmHg 82%
    02:00 +16°C° 0,3 mm 7 m/S 764 mmHg 82%
    03:00 +16°C° 0,3 mm 7 m/S 765 mmHg 83%
    04:00 +16°C° 0,3 mm 8 m/S 765 mmHg 83%
    05:00 +16°C° 0,1 mm 8 m/S 765 mmHg 82%
    06:00 +15°C° 0,1 mm 8 m/S 766 mmHg 80%
    07:00 +15°C° 0,1 mm 7 m/S 766 mmHg 79%
    08:00 +16°C° 0,1 mm 7 m/S 766 mmHg 71%
    09:00 +18°C° 0,1 mm 7 m/S 767 mmHg 63%
    10:00 +20°C° 0,1 mm 7 m/S 767 mmHg 56%
    11:00 +20°C° 0,1 mm 7 m/S 767 mmHg 55%
    12:00 +21°C° 0,1 mm 7 m/S 767 mmHg 55%
    13:00 +21°C° 0,1 mm 7 m/S 766 mmHg 54%
    14:00 +21°C° 0,2 mm 7 m/S 766 mmHg 57%
    15:00 +21°C° 0,2 mm 6 m/S 766 mmHg 59%
    16:00 +20°C° 0,2 mm 6 m/S 766 mmHg 61%
    17:00 +19°C° 0,3 mm 6 m/S 767 mmHg 68%
    18:00 +17°C° 0,3 mm 5 m/S 767 mmHg 74%
    19:00 +16°C° 0,3 mm 5 m/S 768 mmHg 80%
    20:00 +16°C° 0,2 mm 5 m/S 768 mmHg 82%
    21:00 +16°C° 0,2 mm 5 m/S 768 mmHg 83%
    22:00 +15°C° 0,2 mm 5 m/S 768 mmHg 84%
    23:00 +15°C° 0,2 mm 5 m/S 768 mmHg 85%

    übermorgen, 28 April, Samstag

    Zeit Temperatur Niederschläge Wind Luftdruck Luftfeuchtigkeit
    00:00 +15°C° 0,2 mm 5 m/S 768 mmHg 86%
    01:00 +15°C° 0,2 mm 5 m/S 768 mmHg 87%
    02:00 +15°C° 0,1 mm 4 m/S 767 mmHg 87%
    03:00 +14°C° 0,1 mm 4 m/S 767 mmHg 88%
    04:00 +14°C° 0,1 mm 4 m/S 767 mmHg 88%
    05:00 +14°C° 0,3 mm 4 m/S 767 mmHg 88%
    06:00 +14°C° 0,3 mm 5 m/S 768 mmHg 89%
    07:00 +13°C° 0,3 mm 5 m/S 768 mmHg 90%
    08:00 +15°C° 0,6 mm 5 m/S 768 mmHg 87%
    09:00 +16°C° 0,6 mm 5 m/S 768 mmHg 83%
    10:00 +17°C° 0,6 mm 5 m/S 768 mmHg 80%
    11:00 +18°C° 0,6 mm 4 m/S 768 mmHg 80%
    12:00 +18°C° 0,6 mm 4 m/S 767 mmHg 81%
    13:00 +18°C° 0,6 mm 4 m/S 767 mmHg 82%
    14:00 +18°C° 0,5 mm 4 m/S 767 mmHg 82%
    15:00 +18°C° 0,5 mm 4 m/S 766 mmHg 83%
    16:00 +18°C° 0,5 mm 4 m/S 766 mmHg 83%
    17:00 +17°C° 0,4 mm 4 m/S 767 mmHg 85%
    18:00 +17°C° 0,4 mm 4 m/S 767 mmHg 87%
    19:00 +15°C° 0,4 mm 4 m/S 767 mmHg 89%
    20:00 +15°C° 0,2 mm 4 m/S 767 mmHg 89%
    21:00 +15°C° 0,2 mm 4 m/S 768 mmHg 89%
    22:00 +15°C° 0,2 mm 4 m/S 768 mmHg 90%
    23:00 +14°C° 0,2 mm 4 m/S 768 mmHg 90%

    29 April, Sonntag

    Zeit Temperatur Niederschläge Wind Luftdruck Luftfeuchtigkeit
    00:00 +14°C° 0,2 mm 4 m/S 767 mmHg 91%
    01:00 +14°C° 0,2 mm 4 m/S 767 mmHg 91%
    02:00 +14°C° 0,3 mm 4 m/S 767 mmHg 91%
    03:00 +14°C° 0,3 mm 4 m/S 767 mmHg 90%
    04:00 +14°C° 0,3 mm 4 m/S 767 mmHg 90%
    05:00 +14°C° 0,3 mm 4 m/S 767 mmHg 90%
    06:00 +14°C° 0,3 mm 4 m/S 768 mmHg 90%
    07:00 +15°C° 0,3 mm 5 m/S 768 mmHg 90%
    08:00 +17°C° 0,2 mm 4 m/S 768 mmHg 87%
    09:00 +18°C° 0,2 mm 4 m/S 768 mmHg 83%
    10:00 +18°C° 0,2 mm 4 m/S 769 mmHg 80%
    11:00 +19°C° 0,2 mm 4 m/S 768 mmHg 77%
    12:00 +20°C° 0,2 mm 5 m/S 768 mmHg 73%
    13:00 +20°C° 0,2 mm 5 m/S 768 mmHg 70%
    14:00 +20°C° 0,3 mm 5 m/S 768 mmHg 70%
    15:00 +20°C° 0,3 mm 5 m/S 768 mmHg 70%
    16:00 +19°C° 0,3 mm 5 m/S 768 mmHg 71%
    17:00 +17°C° 0,3 mm 5 m/S 768 mmHg 74%
    18:00 +17°C° 0,3 mm 5 m/S 769 mmHg 78%
    19:00 +16°C° 0,3 mm 5 m/S 769 mmHg 82%
    20:00 +16°C° 0,4 mm 5 m/S 769 mmHg 83%
    21:00 +15°C° 0,4 mm 4 m/S 769 mmHg 85%
    22:00 +15°C° 0,4 mm 4 m/S 770 mmHg 86%
    23:00 +15°C° 0,6 mm 4 m/S 769 mmHg 86%

    30 April, Montag

    Zeit Temperatur Niederschläge Wind Luftdruck Luftfeuchtigkeit
    00:00 +15°C° 0,6 mm 4 m/S 769 mmHg 86%
    01:00 +15°C° 0,6 mm 4 m/S 769 mmHg 85%
    02:00 +15°C° 0,3 mm 4 m/S 769 mmHg 85%
    03:00 +15°C° 0,3 mm 5 m/S 769 mmHg 84%
    04:00 +15°C° 0,3 mm 5 m/S 769 mmHg 83%
    05:00 +15°C° 0,2 mm 4 m/S 769 mmHg 84%
    06:00 +14°C° 0,2 mm 4 m/S 770 mmHg 84%
    07:00 +14°C° 0,2 mm 4 m/S 770 mmHg 85%
    08:00 +17°C° 0,1 mm 4 m/S 770 mmHg 76%
    09:00 +19°C° 0,1 mm 4 m/S 770 mmHg 67%
    10:00 +21°C° 0,1 mm 4 m/S 770 mmHg 58%
    11:00 +22°C° 0,1 mm 4 m/S 770 mmHg 56%
    12:00 +22°C° 0,1 mm 4 m/S 770 mmHg 54%
    13:00 +22°C° 0,1 mm 4 m/S 769 mmHg 52%
    14:00 +22°C° 0,1 mm 4 m/S 769 mmHg 55%
    15:00 +21°C° 0,1 mm 4 m/S 769 mmHg 57%
    16:00 +21°C° 0,1 mm 4 m/S 769 mmHg 59%
    17:00 +20°C° 0 mm 4 m/S 769 mmHg 65%
    18:00 +18°C° 0 mm 3 m/S 770 mmHg 71%
    19:00 +17°C° 0 mm 3 m/S 770 mmHg 76%
    20:00 +17°C° 0 mm 3 m/S 770 mmHg 77%
    21:00 +16°C° 0 mm 2 m/S 770 mmHg 78%
    22:00 +16°C° 0 mm 2 m/S 771 mmHg 78%
    23:00 +16°C° 0 mm 2 m/S 770 mmHg 80%

    1 Mai, Dienstag

    Zeit Temperatur Niederschläge Wind Luftdruck Luftfeuchtigkeit
    00:00 +15°C° 0 mm 2 m/S 770 mmHg 81%
    01:00 +15°C° 0 mm 2 m/S 770 mmHg 83%
    02:00 +15°C° 0 mm 2 m/S 770 mmHg 84%
    03:00 +14°C° 0 mm 2 m/S 769 mmHg 86%
    04:00 +14°C° 0 mm 2 m/S 769 mmHg 87%
    05:00 +14°C° 0 mm 2 m/S 769 mmHg 88%
    06:00 +14°C° 0 mm 2 m/S 769 mmHg 88%
    07:00 +14°C° 0 mm 1 m/S 770 mmHg 88%
    08:00 +16°C° 0 mm 1 m/S 769 mmHg 78%
    09:00 +20°C° 0 mm 1 m/S 769 mmHg 67%
    10:00 +23°C° 0 mm 1 m/S 769 mmHg 56%
    11:00 +23°C° 0 mm 1 m/S 769 mmHg 52%
    12:00 +24°C° 0 mm 2 m/S 768 mmHg 47%
    13:00 +25°C° 0 mm 2 m/S 767 mmHg 43%
    14:00 +24°C° 0 mm 2 m/S 767 mmHg 46%
    15:00 +24°C° 0 mm 3 m/S 767 mmHg 48%
    16:00 +24°C° 0 mm 3 m/S 766 mmHg 50%
    17:00 +21°C° 0 mm 3 m/S 767 mmHg 59%
    18:00 +19°C° 0 mm 2 m/S 767 mmHg 68%
    19:00 +18°C° 0 mm 2 m/S 767 mmHg 76%
    20:00 +17°C° 0 mm 2 m/S 767 mmHg 80%
    21:00 +17°C° 0 mm 2 m/S 767 mmHg 83%
    22:00 +16°C° 0 mm 2 m/S 767 mmHg 87%
    23:00 +16°C° 0 mm 2 m/S 767 mmHg 88%
    Mehr zeigen